Location: Buckeye Ditch
(40.9104°N, 122.9517°W)
Time: 12:06:07
(UTC+00:00)

Tiros 1 despin weight - Pass Details

Date: 23 May 2025
Orbit: 563 x 601 km, 48.2° (Epoch: 22 June)

Event Time Altitude Azimuth Distance (km) Brightness Sun altitude
Rises 16:46:25 0° 284° (WNW) 2,845 ? 42.9°
Reaches altitude 10° 16:49:42 10° 259° (W) 1,939 ? 43.5°
Maximum altitude 16:51:58 14° 228° (SW) 1,692 ? 43.9°
Drops below altitude 10° 16:54:15 10° 197° (SSW) 1,930 ? 44.4°
Sets 16:57:31 0° 172° (S) 2,823 ? 45.0°
